Weather in Karman-Sindzikau

Russia / Republic of North Ossetia — Alania     43°06′51″N   44°07′08″E
temp.,
°C
wind,
m/s
gust,
m/s
humid.,
%
clouds,
%
prec.,
mm/h
press.,
hPa
HPBL,
m
21 june, mon
mon2100:00+17ssw43530 0.0 101446
03:00+16ssw43520 0.0 101442
06:00+17ssw33590 0.0 101340
09:00+23ne21522 0.0 1012380
12:00+24ne32561 0.0 1012713
15:00+25ne32601 0.0 1011768
18:00+23ene227241 0.0 1011241
21:00+20ssw335746 0.0 101348
22 june, tue
tue2200:00+17ssw33520 0.0 101437
03:00+16ssw33480 0.0 101331
06:00+18ssw32580 0.0 101231
09:00+23ne21510 0.0 1012380
12:00+24ne325152 0.0 1012580
15:00+25ne31550 0.0 1011630
18:00+23ne1270100 0.0 1011188
21:00+18ssw434840 0.0 101349
23 june, wed
wed2300:00+17ssw433918 0.0 101436
03:00+15ssw434921 0.1 101539
06:00+17ssw33570 0.1 101440
09:00+22ne22510 0.1 1013472
12:00+24ne32550 0.0 1014883
15:00+23ne32600 0.3 1014877
18:00+21nne217212 0.3 1015504
21:00+16ssw32700 0.3 101623
24 june, thu
thu2400:00+16ssw32470 0.0 101630
03:00+15ssw32401 0.0 101525
06:00+17ssw22550 0.0 101527
09:00+22nne21540 0.0 1014459
12:00+23nne42617 0.0 1014984
15:00+22nne327351 0.5 1014781
18:00+20ne217726 0.3 1015457
21:00+16ssw32780 0.3 101619
25 june, fri
fri2500:00+16ssw32571 0.0 101630
03:00+15ssw334619 0.0 101528
06:00+17ssw22570 0.0 101529
09:00+21nne21590 0.0 1014564
12:00+23ne426636 0.1 10141112
15:00+22nne327155 0.9 1014921
18:00+19n129183 0.5 1015252
21:00+17sw219033 0.8 101620